TimeEDT,TemperatureF,Dew PointF,Humidity,Sea Level PressureIn,VisibilityMPH,Wind Direction,Wind SpeedMPH,Gust SpeedMPH,PrecipitationIn,Events,Conditions,WindDirDegrees,DateUTC
12:21 AM,62.6,60.8,94,29.98,4.0,South,4.6,-,N/A,,Overcast,170,2012-10-24 04:21:00
12:53 AM,61.0,60.1,97,29.98,4.0,South,3.5,-,N/A,,Overcast,170,2012-10-24 04:53:00
1:53 AM,59.0,57.9,96,29.98,3.0,SSE,5.8,-,N/A,,Mostly Cloudy,160,2012-10-24 05:53:00
2:09 AM,59.0,57.2,94,29.97,2.5,SSE,5.8,-,N/A,,Mostly Cloudy,150,2012-10-24 06:09:00
2:34 AM,60.8,59.0,94,29.97,3.0,SSE,6.9,-,N/A,,Mostly Cloudy,160,2012-10-24 06:34:00
2:53 AM,61.0,59.0,93,29.97,4.0,South,5.8,-,N/A,,Overcast,170,2012-10-24 06:53:00
3:53 AM,61.0,60.1,97,29.97,5.0,South,5.8,-,N/A,,Overcast,170,2012-10-24 07:53:00
4:53 AM,61.0,59.0,93,29.96,5.0,SSE,6.9,-,N/A,,Overcast,150,2012-10-24 08:53:00
5:01 AM,60.8,59.0,94,29.96,5.0,SSE,5.8,-,N/A,,Overcast,150,2012-10-24 09:01:00
5:53 AM,60.1,57.9,93,29.98,4.0,SE,4.6,-,N/A,,Overcast,140,2012-10-24 09:53:00
6:06 AM,60.8,59.0,94,29.98,6.0,SE,5.8,-,N/A,,Overcast,140,2012-10-24 10:06:00
6:40 AM,59.0,57.2,94,29.97,5.0,SE,5.8,-,N/A,,Scattered Clouds,140,2012-10-24 10:40:00
6:53 AM,59.0,57.0,93,29.97,5.0,SSE,5.8,-,N/A,,Partly Cloudy,150,2012-10-24 10:53:00
7:53 AM,57.9,55.9,93,29.98,4.0,SSE,4.6,-,N/A,,Partly Cloudy,160,2012-10-24 11:53:00
8:53 AM,60.1,57.9,93,30.00,3.0,SSE,5.8,-,N/A,,Mostly Cloudy,160,2012-10-24 12:53:00
9:53 AM,63.0,60.1,90,29.98,5.0,South,10.4,-,N/A,,Scattered Clouds,170,2012-10-24 13:53:00
10:53 AM,66.9,60.1,79,29.99,8.0,SSW,9.2,-,N/A,,Mostly Cloudy,200,2012-10-24 14:53:00
11:53 AM,69.1,60.1,73,29.98,10.0,SW,5.8,-,N/A,,Mostly Cloudy,220,2012-10-24 15:53:00
12:53 PM,72.0,61.0,68,29.97,10.0,SSW,5.8,-,N/A,,Mostly Cloudy,210,2012-10-24 16:53:00
1:53 PM,73.9,62.1,66,29.95,10.0,SSE,6.9,-,N/A,,Scattered Clouds,160,2012-10-24 17:53:00
2:53 PM,75.9,63.0,64,29.94,10.0,South,9.2,-,N/A,,Mostly Cloudy,170,2012-10-24 18:53:00
3:53 PM,77.0,63.0,62,29.92,10.0,South,6.9,-,N/A,,Mostly Cloudy,190,2012-10-24 19:53:00
4:53 PM,75.9,63.0,64,29.91,10.0,South,6.9,-,N/A,,Mostly Cloudy,170,2012-10-24 20:53:00
5:53 PM,73.9,62.1,66,29.91,10.0,South,8.1,-,N/A,,Mostly Cloudy,170,2012-10-24 21:53:00
6:53 PM,71.1,61.0,70,29.92,10.0,SSE,8.1,-,N/A,,Mostly Cloudy,160,2012-10-24 22:53:00
7:53 PM,69.1,60.1,73,29.93,10.0,South,8.1,-,N/A,,Mostly Cloudy,170,2012-10-24 23:53:00
8:53 PM,68.0,60.1,76,29.93,10.0,South,8.1,-,N/A,,Scattered Clouds,170,2012-10-25 00:53:00
9:53 PM,66.0,60.1,81,29.93,10.0,South,8.1,-,N/A,,Scattered Clouds,170,2012-10-25 01:53:00
10:53 PM,66.9,60.1,79,29.93,9.0,South,8.1,-,N/A,,Mostly Cloudy,180,2012-10-25 02:53:00
11:53 PM,68.0,60.1,76,29.92,9.0,South,9.2,-,N/A,,Scattered Clouds,180,2012-10-25 03:53:00